Location: Newark
(46.9000°N, 28.3500°E)
Time: 11:53:28
(UTC+00:00)

Explorer 7 - Pass Details

Date: 02 September 2019
Orbit: 485 x 680 km, 50.3° (Epoch: 22 September)

Event Time Altitude Azimuth Distance (km) Brightness Sun altitude
Rises 05:22:46 0° 260° (W) 3,031 10.0 18.8°
Reaches altitude 10° 05:25:10 10° 263° (W) 2,116 9.3 19.2°
Maximum altitude 05:30:04 68° 346° (NNW) 725 7.6 20.1°
Drops below altitude 10° 05:34:51 10° 70° (ENE) 2,065 10.9 20.9°
Sets 05:37:10 0° 73° (ENE) 2,952 11.6 21.3°
